Tracking 19969 objects as of 13-Nov-2019
Live streaming from Space Station
objects crossing your sky now
Track the group of recently launched Starlink satellites

COSMOS 1275 DEB

Track COSMOS 1275 DEB now!
10-day predictions


NORAD ID: 42183
Int'l Code: 1981-053SX
Perigee: 925.0 km
Apogee: 998.7 km
Inclination: 82.9 °
Period: 104.2 minutes
Semi major axis: 7332 km
RCS: Unknown
Launch date: June 4, 1981
Source: Commonwealth of Independent States (former USSR) (CIS)
Launch site: PLESETSK MISSILE AND SPACE COMPLEX (PKMTR)

Note: This is SATELLITE DEBRIS
aabbcc
Your satellite tracking list
Your tracking list is empty




NASA's NSSDC Master Catalog

Two Line Element Set (TLE):
1 42183U 81053SX  19311.50900757  .00000301  00000-0  26030-3 0  9991
2 42183  82.9386 227.4148 0050263  73.4117  51.6489 13.82588218832566
Source of the keplerian elements: AFSPC